Location: Unspecified
(0.0000°N, 0.0000°E)
Time: 03:32:46
(UTC+00:00)

ISS - Pass Details

Date: 10 March 2026
Orbit: 417 x 426 km, 51.6° (Epoch: 16 March)

Event Time Altitude Azimuth Distance (km) Brightness Sun altitude
Exits shadow 04:29:55 10° 25° (NNE) 1,502 -0.7 -25.0°
Reaches altitude 10° 04:30:02 10° 27° (NNE) 1,480 -0.7 -25.0°
Maximum altitude 04:31:33 13° 54° (NE) 1,335 -0.6 -24.6°
Drops below altitude 10° 04:33:04 10° 81° (E) 1,484 0.0 -24.3°
Sets 04:36:07 0° 112° (ESE) 2,350 1.3 -23.5°
